Weather History for Bigfork, MN

Change the Weather History Date:

Tuesday, June 25, 2013

  Actual Average (KGPZ) Record (KGPZ)
Temperature  
Mean Temperature 69 °F -  
Max Temperature 87 °F 77 °F 94 °F (1919)
Min Temperature 51 °F 52 °F 35 °F (1929)
Cooling Degree Days 4    
Growing Degree Days 19 (Base 50)    
Moisture  
Dew Point 60 °F    
Average Humidity 72    
Maximum Humidity 94    
Minimum Humidity 43    
Precipitation  
Precipitation 0.00 in - - ()
Sea Level Pressure  
Sea Level Pressure 29.79 in    
Wind  
Wind Speed 2 mph (South)    
Max Wind Speed 14 mph    
Max Gust Speed 21 mph    
Visibility 9 miles    
Events Fog    
Averages and records for this station are not official NWS values.
T = Trace of Precipitation, MM = Missing Value Source: NWS Daily Summary

Daily Weather History Graph

Daily Weather History Graph

Search for Another Location

Airport:

Trip Planner

Search our weather history database for the weather conditions in past years. The results will help you decide how hot, cold, wet, or windy it might be!

Date:

Astronomy

Jun. 25, 2013 Rise Set
Actual Time 5:17 AM CDT 9:17 PM CDT
Civil Twilight 4:36 AM CDT 9:58 PM CDT
Nautical Twilight 3:39 AM CDT 10:54 PM CDT
Astronomical Twilight 2:05 AM CDT 12:27 AM CDT
Moon 10:47 PM CDT (6/25) 8:10 AM CDT (6/25)
Length of Visible Light 17h 21m
Length of Day
15h 59m
Waning Gibbous, 92% of the Moon is Illuminated
Jun 25
Waning Gibbous
Jun 29
Last Quarter
Jul 8
New
Jul 15
First Quarter
Jul 22
Full

Hourly Weather History & Observations

Time (CDT) Temp. Heat Index Dew Point Humidity Pressure Visibility Wind Dir Wind Speed Gust Speed Precip Events Conditions
12:13 AM 57.2 °F - 55.4 °F 94% 29.81 in 10.0 mi Calm Calm - N/A   Clear
12:33 AM 57.2 °F - 55.4 °F 94% 29.82 in 4.0 mi Calm Calm - N/A   Clear
12:53 AM 55.4 °F - 53.6 °F 94% 29.82 in 10.0 mi Calm Calm - N/A   Clear
1:13 AM 55.4 °F - 53.6 °F 94% 29.81 in 10.0 mi Calm Calm - N/A   Clear
1:33 AM 55.4 °F - 53.6 °F 94% 29.81 in 2.5 mi Calm Calm - N/A   Clear
1:53 AM 55.4 °F - 53.6 °F 94% 29.81 in 3.0 mi Calm Calm - N/A   Clear
2:13 AM 53.6 °F - 51.8 °F 94% 29.81 in 10.0 mi Calm Calm - N/A   Clear
2:33 AM 53.6 °F - 51.8 °F 94% 29.81 in 10.0 mi Calm Calm - N/A   Clear
2:53 AM 53.6 °F - 51.8 °F 94% 29.82 in 10.0 mi Calm Calm - N/A   Clear
3:13 AM 51.8 °F - 50.0 °F 94% 29.82 in 10.0 mi Calm Calm - N/A   Clear
3:33 AM 51.8 °F - 50.0 °F 94% 29.82 in 10.0 mi Calm Calm - N/A   Clear
3:53 AM 51.8 °F - 50.0 °F 94% 29.82 in 10.0 mi Calm Calm - N/A   Clear
4:13 AM 51.8 °F - 50.0 °F 94% 29.82 in 10.0 mi Calm Calm - N/A   Clear
4:33 AM 51.8 °F - 50.0 °F 94% 29.82 in 10.0 mi Calm Calm - N/A   Scattered Clouds
4:53 AM 51.8 °F - 50.0 °F 94% 29.83 in 10.0 mi Calm Calm - N/A   Clear
5:13 AM 53.6 °F - 51.8 °F 94% 29.82 in 10.0 mi Calm Calm - N/A   Mostly Cloudy
5:33 AM 53.6 °F - 51.8 °F 94% 29.82 in 10.0 mi Calm Calm - N/A   Overcast
5:53 AM 55.4 °F - 53.6 °F 94% 29.82 in 10.0 mi Calm Calm - N/A   Overcast
6:13 AM 57.2 °F - 55.4 °F 94% 29.82 in 10.0 mi Calm Calm - N/A   Overcast
6:33 AM 60.8 °F - 57.2 °F 88% 29.83 in 0.2 mi Calm Calm - N/A Fog Fog
6:53 AM 62.6 °F - 60.8 °F 94% 29.82 in 0.8 mi Calm Calm - N/A   Overcast
7:13 AM 64.4 °F - 62.6 °F 94% 29.82 in 3.0 mi Calm Calm - N/A   Overcast
7:33 AM 64.4 °F - 62.6 °F 94% 29.82 in 4.0 mi Calm Calm - N/A   Overcast
7:53 AM 66.2 °F - 64.4 °F 94% 29.82 in 3.0 mi Calm Calm - N/A   Overcast
8:13 AM 66.2 °F - 64.4 °F 94% 29.82 in 2.0 mi East 3.5 mph - N/A   Overcast
8:33 AM 66.2 °F - 64.4 °F 94% 29.82 in 4.0 mi Calm Calm - N/A   Overcast
8:53 AM 68.0 °F - 64.4 °F 88% 29.82 in 5.0 mi SE 3.5 mph - N/A   Overcast
9:13 AM 71.6 °F - 66.2 °F 83% 29.82 in 10.0 mi Calm Calm - N/A   Mostly Cloudy
9:33 AM 71.6 °F - 66.2 °F 83% 29.82 in 10.0 mi SSE 3.5 mph - N/A   Mostly Cloudy
9:53 AM 73.4 °F - 66.2 °F 78% 29.82 in 10.0 mi Calm Calm - N/A   Scattered Clouds
10:13 AM 75.2 °F - 66.2 °F 73% 29.81 in 10.0 mi East 4.6 mph - N/A   Clear
10:33 AM 77.0 °F - 66.2 °F 69% 29.80 in 10.0 mi SE 4.6 mph - N/A   Clear
10:53 AM 78.8 °F - 66.2 °F 65% 29.80 in 10.0 mi SSE 5.8 mph - N/A   Clear
11:13 AM 80.6 °F 82.7 °F 66.2 °F 61% 29.81 in 10.0 mi Calm Calm - N/A   Clear
11:33 AM 80.6 °F 82.7 °F 66.2 °F 61% 29.81 in 10.0 mi South 9.2 mph - N/A   Clear
11:53 AM 80.6 °F 82.3 °F 64.4 °F 58% 29.81 in 10.0 mi SSE 6.9 mph - N/A   Clear
12:13 PM 82.4 °F 83.9 °F 64.4 °F 54% 29.81 in 10.0 mi South 9.2 mph - N/A   Clear
12:33 PM 82.4 °F 83.4 °F 62.6 °F 51% 29.80 in 10.0 mi South 12.7 mph 16.1 mph N/A   Clear
12:53 PM 84.2 °F 85.0 °F 62.6 °F 48% 29.80 in 10.0 mi SSW 13.8 mph 17.3 mph N/A   Clear
1:13 PM 84.2 °F 85.0 °F 62.6 °F 48% 29.80 in 10.0 mi South 9.2 mph 20.7 mph N/A   Clear
1:33 PM 84.2 °F 85.0 °F 62.6 °F 48% 29.80 in 10.0 mi SSE 9.2 mph - N/A   Clear
1:53 PM 84.2 °F 85.0 °F 62.6 °F 48% 29.79 in 10.0 mi South 9.2 mph - N/A   Clear
2:13 PM 84.2 °F 85.0 °F 62.6 °F 48% 29.79 in 10.0 mi SSE 5.8 mph - N/A   Clear
2:33 PM 86.0 °F 86.6 °F 62.6 °F 45% 29.79 in 10.0 mi South 9.2 mph 16.1 mph N/A   Clear
2:53 PM 86.0 °F 86.6 °F 62.6 °F 45% 29.79 in 10.0 mi South 4.6 mph - N/A   Clear
3:13 PM 86.0 °F 86.6 °F 62.6 °F 45% 29.79 in 10.0 mi South 8.1 mph - N/A   Clear
3:33 PM 87.8 °F 88.5 °F 62.6 °F 43% 29.79 in 10.0 mi South 5.8 mph - N/A   Clear
3:53 PM 84.2 °F 85.0 °F 62.6 °F 48% 29.78 in 10.0 mi South 5.8 mph - N/A   Scattered Clouds
4:13 PM 86.0 °F 86.6 °F 62.6 °F 45% 29.78 in 10.0 mi SSW 9.2 mph - N/A   Scattered Clouds
4:33 PM 87.8 °F 88.5 °F 62.6 °F 43% 29.77 in 10.0 mi WSW 8.1 mph - N/A   Scattered Clouds
4:53 PM 87.8 °F 88.5 °F 62.6 °F 43% 29.76 in 10.0 mi SSW 5.8 mph - N/A   Clear
5:13 PM 86.0 °F 86.6 °F 62.6 °F 45% 29.76 in 10.0 mi SSE 9.2 mph - N/A   Scattered Clouds
5:33 PM 86.0 °F 86.6 °F 62.6 °F 45% 29.75 in 10.0 mi SSW 4.6 mph - N/A   Scattered Clouds
5:53 PM 86.0 °F 86.6 °F 62.6 °F 45% 29.75 in 10.0 mi South 6.9 mph - N/A   Clear
6:13 PM 84.2 °F 85.0 °F 62.6 °F 48% 29.74 in 10.0 mi SSW 8.1 mph - N/A   Clear
6:33 PM 84.2 °F 85.0 °F 62.6 °F 48% 29.74 in 10.0 mi SSE 5.8 mph - N/A   Clear
6:53 PM 84.2 °F 85.6 °F 64.4 °F 51% 29.74 in 10.0 mi South 5.8 mph - N/A   Clear
7:13 PM 84.2 °F 85.0 °F 62.6 °F 48% 29.74 in 10.0 mi SSE 6.9 mph - N/A   Clear
7:33 PM 82.4 °F 83.4 °F 62.6 °F 51% 29.73 in 10.0 mi SSE 5.8 mph - N/A   Clear
7:53 PM 82.4 °F 83.4 °F 62.6 °F 51% 29.73 in 10.0 mi South 3.5 mph - N/A   Clear
8:13 PM 80.6 °F 82.3 °F 64.4 °F 58% 29.73 in 10.0 mi Calm Calm - N/A   Clear
8:33 PM 75.2 °F - 64.4 °F 69% 29.73 in 10.0 mi Calm Calm - N/A   Clear
8:53 PM 77.0 °F - 62.6 °F 61% 29.72 in 10.0 mi SSE 4.6 mph - N/A   Clear
9:13 PM 75.2 °F - 62.6 °F 65% 29.72 in 10.0 mi Calm Calm - N/A   Clear
9:33 PM 71.6 °F - 64.4 °F 78% 29.72 in 10.0 mi SSE 4.6 mph - N/A   Clear
9:53 PM 71.6 °F - 64.4 °F 78% 29.72 in 10.0 mi SSE 3.5 mph - N/A   Clear
10:13 PM 68.0 °F - 62.6 °F 83% 29.74 in 10.0 mi Calm Calm - N/A   Clear
10:33 PM 66.2 °F - 64.4 °F 94% 29.74 in 7.0 mi Calm Calm - N/A   Clear
10:53 PM 68.0 °F - 62.6 °F 83% 29.73 in 10.0 mi Calm Calm - N/A   Clear
11:13 PM 68.0 °F - 62.6 °F 83% 29.73 in 10.0 mi Calm Calm - N/A   Clear
11:33 PM 66.2 °F - 62.6 °F 88% 29.72 in 10.0 mi Calm Calm - N/A   Clear
11:53 PM 64.4 °F - 60.8 °F 88% 29.72 in 10.0 mi Calm Calm - N/A   Clear